Simultaneous Nadir Overpasses (SNOs) Predictions

Prediction of SNOs between AQUA and METOP-C Satellite Orbit:

Table of predicted SNOs for the next 14.0 days since TLE Epoch: 12/4/2021
Index Date (AQUA) Time (AQUA) Lat,Lon (AQUA) SZA (AQUA ) Date (METOP-C) Time (METOP-C) Lat,Lon (METOP-C) SZA (METOP-C ) Distance(km) Time Diff (sec)
1 12/04/2021 09:07:54 -73.58,-142.20 84.22 12/04/2021 09:06:41 -73.52,-142.85 84.26 21.61 73
2 12/04/2021 09:57:25 73.75, 25.07 95.97 12/04/2021 09:57:17 73.74, 25.01 95.97 2.12 8
3 12/04/2021 10:46:52 -73.83,-167.46 83.95 12/04/2021 10:47:56 -73.84,-167.42 83.94 2.25 64
4 12/07/2021 04:42:15 -73.68, -75.98 83.77 12/07/2021 04:41:02 -73.60, -76.23 83.83 11.15 73
5 12/07/2021 05:31:44 73.75, 91.50 96.31 12/07/2021 05:31:40 73.73, 91.40 96.30 3.50 4
6 12/07/2021 06:21:11 -73.82,-101.03 83.61 12/07/2021 06:22:19 -73.83,-101.04 83.60 1.12 68
7 12/10/2021 00:16:33 -73.68, -9.57 83.47 12/10/2021 00:15:22 -73.69, -9.63 83.46 1.72 71
8 12/10/2021 01:06:02 73.76, 157.90 96.62 12/10/2021 01:06:01 73.77, 157.89 96.63 1.06 1
9 12/10/2021 01:55:29 -73.83, -34.62 83.31 12/10/2021 01:56:41 -73.82, -34.66 83.33 2.02 72
10 12/12/2021 19:50:52 -73.71, 56.81 83.22 12/12/2021 19:49:44 -73.72, 56.86 83.20 2.31 68
11 12/12/2021 20:40:21 73.79,-135.73 96.87 12/12/2021 20:40:24 73.75,-135.73 96.84 3.78 3
12 12/12/2021 21:29:49 -73.90, 31.65 83.01 12/12/2021 21:31:02 -73.90, 31.94 83.02 9.13 73
13 12/15/2021 15:25:10 -73.69, 123.28 83.07 12/15/2021 15:24:07 -73.70, 123.22 83.05 2.19 63
14 12/15/2021 16:14:39 73.77, -69.28 97.03 12/15/2021 16:14:46 73.78, -69.26 97.03 1.00 7



Historial Predications of SNOs between AQUA and METOP-C
